Zurück zum Katalog

CZ-4C Y49 STAGE 3

AktivLEO
NORAD 56158·ROCKET BODY·🇨🇳 China
Dieser Satellitenname wurde noch nicht durch offizielle Quellen bestätigt.

Gestartet Mar 31, 2023 von Jiuquan Satellite Launch Center

Loading…

Nächste Überflüge (nächste 24 Stunden)

TLE

AktuellSource: Space-Track

Epoche: Sep 14, 2026, 14:58 UTC

1 56158U 23048B   26257.62378963 -.00000072  00000-0  23276-4 0  9992
2 56158  63.4032  95.6946 0227944  24.5022 336.6647 13.68548051172889

Verfolge CZ-4C Y49 STAGE 3 in Echtzeit mit AllMySat

Download on the App Store